This demonstration page uses our WeatherBlox Daily Observations layout. Learn more.

Left ArrowRight Arrow

Hourly Observations for April 16, 2015

Temp ( °F °C ) Dew Point ( °F °C ) Humidity (%) Winds ( mph kmh ) Pressure ( in mb ) Visibility ( mi km ) Precip ( " mm )
12:53 am 00:53 Mostly Clear 58 14.4 42 5.6 56 56 E 7 11 30.17 1022 10 16.0934 0 0
1:53 am 01:53 Mostly Cloudy 58 14.4 44 6.7 60 60 E 7 11 30.15 1021 10 16.0934 0 0
2:53 am 02:53 Cloudy 59 15 48 8.9 67 67 VRB 6 9 30.14 1021 10 16.0934 0 0
3:53 am 03:53 Cloudy 59 15 48 8.9 67 67 ESE 5 7 30.13 1020 10 16.0934 0 0
4:53 am 04:53 Cloudy 58 14.4 48 8.9 70 70 ESE 6 9 30.11 1020 10 16.0934 0 0
5:53 am 05:53 Cloudy 59 15 48 8.9 67 67 VRB 5 7 30.11 1020 10 16.0934 0 0
6:53 am 06:53 Cloudy 58 14.4 48 8.9 70 70 ESE 3 6 30.13 1020 10 16.0934 0 0
7:03 am 07:03 Cloudy 58 14.4 48 8.9 70 70 ESE 3 6 30.12 1020 10 16.0934 0 0
7:53 am 07:53 Cloudy 59 15 48 8.9 67 67 VRB 6 9 30.14 1021 10 16.0934 0 0
8:53 am 08:53 Cloudy 59 15 49 9.4 69 69 VRB 6 9 30.14 1021 10 16.0934 0 0
9:53 am 09:53 Cloudy 59 15 51 10.6 75 75 SE 8 13 30.13 1020 10 16.0934 0 0
10:53 am 10:53 Cloudy 61 16.1 52 11.1 72 72 VRB 5 7 30.14 1021 10 16.0934 0 0
11:53 am 11:53 Cloudy 62 16.7 52 11.1 70 70 SE 8 13 30.14 1021 10 16.0934 0 0
12:53 pm 12:53 Cloudy 64 17.8 54 12.2 70 70 Calm 30.12 1020 10 16.0934 0 0
1:53 pm 13:53 Partly Cloudy 71 21.7 57 13.9 61 61 VRB 6 9 30.09 1019 10 16.0934 0 0
2:03 pm 14:03 Mostly Cloudy 69 20.6 56 13.3 63 63 SSE 7 11 30.06 1018 10 16.0934 0 0
2:53 pm 14:53 Cloudy 69 20.6 58 14.4 68 68 WNW 5 7 30.08 1019 10 16.0934 0 0
3:13 pm 15:13 Cloudy 72 22.2 59 15 64 64 VRB 3 6 30.06 1018 10 16.0934 0 0
3:53 pm 15:53 Cloudy 72 22.2 58 14.4 61 61 SSW 7 11 30.06 1018 10 16.0934 0 0
4:53 pm 16:53 Cloudy 73 22.8 58 14.4 59 59 W 5 7 30.05 1018 10 16.0934 0 0
5:53 pm 17:53 Cloudy 73 22.8 57 13.9 57 57 Calm 30.05 1018 10 16.0934 0 0
6:53 pm 18:53 Cloudy with Light Rain 71 21.7 56 13.3 59 59 SW 3 6 30.04 1017 10 16.0934 0 0.0254
7:53 pm 19:53 Cloudy 67 19.4 61 16.1 81 81 Calm 30.05 1018 10 16.0934 0 0.0254
8:18 pm 20:18 Cloudy with Light Rain 65 18.3 61 16.1 87 87 SSW 9 15 30.06 1018 1.75 2.816345 0.06 1.524
8:25 pm 20:25 Cloudy with Rain 64 17.8 62 16.7 93 93 SSW 6 9 30.06 1018 1.25 2.011675 0.08 2.032
8:28 pm 20:28 Cloudy with Light Rain 64 17.8 62 16.7 93 93 SSW 3 6 30.06 1018 2.5 4.02335 0.09 2.286
8:35 pm 20:35 Cloudy with Light Rain 64 17.8 62 16.7 93 93 Calm 30.06 1018 6 9.65604 0.09 2.286
8:53 pm 20:53 Cloudy 63 17.2 62 16.7 97 97 Calm 30.07 1018 9 14.48406 0.09 2.286
9:53 pm 21:53 Cloudy 63 17.2 62 16.7 97 97 Calm 30.09 1019 10 16.0934 0.03 0.762
10:42 pm 22:42 Cloudy with Heavy Rain 63 17.2 62 16.7 97 97 Calm 30.06 1018 2.5 4.02335 0.07 1.778
10:53 pm 22:53 Cloudy with Light Rain 63 17.2 63 17.2 100 100 Calm 30.1 1019 6 9.65604 0.08 2.032
11:17 pm 23:17 Cloudy with Light Rain 62 16.7 62 16.7 100 100 Calm 30.06 1018 3 4.82802 0 0.0254
11:53 pm 23:53 Mostly Cloudy 63 17.2 62 16.7 97 97 Calm 30.09 1019 7 11.26538 0.01 0.254

Powered by AerisWeather